Location: Invercargill
(46.4000°S, 168.3500°E)
Time: 14:11:01
(UTC+13:00)

SL-16 R/B - Pass Details

Date: 24 January 2019
Orbit: 842 x 846 km, 71.0° (Epoch: 20 February)

Event Time Altitude Azimuth Distance (km) Brightness Sun altitude
Rises 22:38:15 0° 337° (NNW) 3,402 5.2 -10.3°
Reaches altitude 10° 22:40:41 10° 337° (NNW) 2,473 4.4 -10.6°
Maximum altitude 22:46:23 88° 64° (ENE) 862 2.2 -11.3°
Drops below altitude 10° 22:52:09 10° 153° (SSE) 2,500 4.9 -12.0°
Sets 22:54:37 0° 153° (SSE) 3,441 5.6 -12.3°
